Tabellarische Ansicht des 22.5.2012


Die einzelnen Werte des Tages

Uhrzeit Temperatur Luftdruck Luftfeuchte Wind Hi-Wind Taupunkt THW Index Wind Chill Heat Index Solar- strahlung Regen

00:00

19.1 C

998.5 hpa

76 %

1.6 km/h aus 115

4.8 km/h aus NNE

14.7 C

19.4 C

19.1 C

19.4 C

0 W/m

0.00 mm

00:05

19.2 C

998.5 hpa

76 %

1.6 km/h aus 109

3.2 km/h aus NNE

14.8 C

19.6 C

19.2 C

19.6 C

0 W/m

0.00 mm

00:10

19.2 C

998.5 hpa

76 %

1.6 km/h aus 110

6.4 km/h aus NNE

14.8 C

19.6 C

19.2 C

19.6 C

0 W/m

0.00 mm

00:15

19.1 C

998.5 hpa

76 %

1.6 km/h aus 106

6.4 km/h aus NNE

14.8 C

19.5 C

19.1 C

19.5 C

0 W/m

0.00 mm

00:20

19.2 C

998.5 hpa

76 %

1.6 km/h aus 106

4.8 km/h aus NNE

14.8 C

19.6 C

19.2 C

19.6 C

0 W/m

0.00 mm

00:25

19.2 C

998.5 hpa

76 %

1.6 km/h aus 110

6.4 km/h aus NNE

14.8 C

19.6 C

19.2 C

19.6 C

0 W/m

0.00 mm

00:30

19.1 C

998.6 hpa

76 %

1.6 km/h aus 107

4.8 km/h aus NNE

14.7 C

19.4 C

19.1 C

19.4 C

0 W/m

0.00 mm

00:35

19.1 C

998.6 hpa

76 %

1.6 km/h aus 110

4.8 km/h aus NNE

14.7 C

19.4 C

19.1 C

19.4 C

0 W/m

0.00 mm

00:40

18.8 C

998.6 hpa

77 %

3.2 km/h aus 114

8.0 km/h aus NNE

14.7 C

19.2 C

18.8 C

19.2 C

0 W/m

0.00 mm

00:45

18.9 C

998.7 hpa

77 %

3.2 km/h aus 110

8.0 km/h aus NNE

14.8 C

19.3 C

18.9 C

19.3 C

0 W/m

0.00 mm

00:50

19.0 C

998.7 hpa

76 %

4.8 km/h aus 106

11.3 km/h aus NE

14.7 C

19.3 C

19.0 C

19.3 C

0 W/m

0.00 mm

00:55

19.1 C

998.7 hpa

76 %

6.4 km/h aus 106

11.3 km/h aus NE

14.7 C

19.4 C

19.1 C

19.4 C

0 W/m

0.00 mm

01:00

19.3 C

998.8 hpa

75 %

4.8 km/h aus 110

16.1 km/h aus NE

14.7 C

19.6 C

19.3 C

19.6 C

0 W/m

0.00 mm

01:05

19.5 C

998.8 hpa

74 %

4.8 km/h aus 112

11.3 km/h aus NE

14.7 C

19.9 C

19.5 C

19.9 C

0 W/m

0.00 mm

01:10

19.6 C

998.8 hpa

74 %

6.4 km/h aus 114

11.3 km/h aus NE

14.8 C

20.0 C

19.6 C

20.0 C

0 W/m

0.00 mm

01:15

19.6 C

998.8 hpa

73 %

4.8 km/h aus 108

9.7 km/h aus NE

14.6 C

19.9 C

19.6 C

19.9 C

0 W/m

0.00 mm

01:20

19.6 C

998.8 hpa

73 %

6.4 km/h aus 110

11.3 km/h aus NE

14.6 C

19.9 C

19.6 C

19.9 C

0 W/m

0.00 mm

01:25

19.5 C

998.8 hpa

73 %

4.8 km/h aus 109

11.3 km/h aus NE

14.5 C

19.8 C

19.5 C

19.8 C

0 W/m

0.00 mm

01:30

19.5 C

999.0 hpa

73 %

4.8 km/h aus 113

9.7 km/h aus NE

14.5 C

19.8 C

19.5 C

19.8 C

0 W/m

0.00 mm

01:35

19.5 C

999.0 hpa

73 %

3.2 km/h aus 111

14.5 km/h aus NE

14.5 C

19.8 C

19.5 C

19.8 C

0 W/m

0.00 mm

01:40

19.4 C

999.0 hpa

73 %

3.2 km/h aus 111

8.0 km/h aus NE

14.5 C

19.8 C

19.4 C

19.8 C

0 W/m

0.00 mm

01:45

19.2 C

999.1 hpa

74 %

1.6 km/h aus 113

8.0 km/h aus NE

14.4 C

19.4 C

19.2 C

19.4 C

0 W/m

0.00 mm

01:50

18.7 C

999.1 hpa

76 %

1.6 km/h aus 113

4.8 km/h aus NE

14.3 C

18.9 C

18.7 C

18.9 C

0 W/m

0.00 mm

01:55

18.1 C

999.1 hpa

78 %

1.6 km/h aus 114

3.2 km/h aus NE

14.2 C

18.3 C

18.1 C

18.3 C

0 W/m

0.00 mm

02:00

17.7 C

999.1 hpa

81 %

1.6 km/h aus 109

3.2 km/h aus NE

14.4 C

18.0 C

17.7 C

18.0 C

0 W/m

0.00 mm

02:05

17.4 C

999.1 hpa

82 %

0.0 km/h aus 110

3.2 km/h aus NE

14.3 C

17.7 C

17.4 C

17.7 C

0 W/m

0.00 mm

02:10

17.3 C

999.1 hpa

83 %

0.0 km/h aus 109

1.6 km/h aus NE

14.4 C

17.5 C

17.3 C

17.5 C

0 W/m

0.00 mm

02:15

17.1 C

999.2 hpa

83 %

0.0 km/h aus 107

1.6 km/h aus NE

14.2 C

17.3 C

17.1 C

17.3 C

0 W/m

0.00 mm

02:20

16.9 C

999.2 hpa

84 %

0.0 km/h aus 109

4.8 km/h aus NE

14.2 C

17.2 C

16.9 C

17.2 C

0 W/m

0.00 mm

02:25

16.8 C

999.2 hpa

84 %

1.6 km/h aus 108

4.8 km/h aus NE

14.1 C

17.0 C

16.8 C

17.0 C

0 W/m

0.00 mm

02:30

16.9 C

999.2 hpa

84 %

0.0 km/h aus 107

3.2 km/h aus NE

14.2 C

17.1 C

16.9 C

17.1 C

0 W/m

0.00 mm

02:35

17.0 C

999.2 hpa

84 %

1.6 km/h aus 106

6.4 km/h aus NE

14.3 C

17.2 C

17.0 C

17.2 C

0 W/m

0.00 mm

02:40

17.2 C

999.2 hpa

83 %

1.6 km/h aus 112

6.4 km/h aus NE

14.3 C

17.4 C

17.2 C

17.4 C

0 W/m

0.00 mm

02:45

17.2 C

999.2 hpa

82 %

1.6 km/h aus 107

6.4 km/h aus NE

14.1 C

17.4 C

17.2 C

17.4 C

0 W/m

0.00 mm

02:50

17.4 C

999.2 hpa

81 %

3.2 km/h aus 109

8.0 km/h aus NE

14.1 C

17.7 C

17.4 C

17.7 C

0 W/m

0.00 mm

02:55

17.7 C

999.2 hpa

79 %

3.2 km/h aus 111

8.0 km/h aus NE

14.0 C

17.9 C

17.7 C

17.9 C

0 W/m

0.00 mm

03:00

17.9 C

999.1 hpa

78 %

3.2 km/h aus 114

9.7 km/h aus NE

14.0 C

18.1 C

17.9 C

18.1 C

0 W/m

0.00 mm

03:05

18.1 C

999.1 hpa

77 %

3.2 km/h aus 109

9.7 km/h aus NE

14.0 C

18.3 C

18.1 C

18.3 C

0 W/m

0.00 mm

03:10

18.3 C

999.1 hpa

75 %

3.2 km/h aus 107

8.0 km/h aus NE

13.8 C

18.5 C

18.3 C

18.5 C

0 W/m

0.00 mm

03:15

18.4 C

999.2 hpa

75 %

4.8 km/h aus 107

12.9 km/h aus NE

13.9 C

18.6 C

18.4 C

18.6 C

0 W/m

0.00 mm

03:20

18.4 C

999.2 hpa

74 %

4.8 km/h aus 105

11.3 km/h aus NE

13.7 C

18.6 C

18.4 C

18.6 C

0 W/m

0.00 mm

03:25

18.5 C

999.2 hpa

74 %

3.2 km/h aus 110

9.7 km/h aus NE

13.8 C

18.7 C

18.5 C

18.7 C

0 W/m

0.00 mm

03:30

18.4 C

999.3 hpa

74 %

1.6 km/h aus 108

9.7 km/h aus NE

13.7 C

18.6 C

18.4 C

18.6 C

0 W/m

0.00 mm

03:35

18.2 C

999.3 hpa

75 %

3.2 km/h aus 110

8.0 km/h aus NE

13.7 C

18.4 C

18.2 C

18.4 C

0 W/m

0.00 mm

03:40

17.8 C

999.3 hpa

77 %

0.0 km/h aus 106

4.8 km/h aus NE

13.7 C

17.9 C

17.8 C

17.9 C

0 W/m

0.00 mm

03:45

17.5 C

999.6 hpa

78 %

0.0 km/h aus 109

3.2 km/h aus NE

13.6 C

17.6 C

17.5 C

17.6 C

0 W/m

0.00 mm

03:50

17.2 C

999.6 hpa

79 %

0.0 km/h aus 113

1.6 km/h aus NE

13.5 C

17.3 C

17.2 C

17.3 C

0 W/m

0.00 mm

03:55

16.9 C

999.6 hpa

80 %

0.0 km/h aus 116

0.0 km/h aus ---

13.4 C

17.0 C

16.9 C

17.0 C

0 W/m

0.00 mm

04:00

16.6 C

999.7 hpa

81 %

0.0 km/h aus 111

1.6 km/h aus NE

13.3 C

16.7 C

16.6 C

16.7 C

0 W/m

0.00 mm

04:05

16.5 C

999.7 hpa

82 %

0.0 km/h aus 116

1.6 km/h aus NE

13.4 C

16.6 C

16.5 C

16.6 C

0 W/m

0.00 mm

04:10

16.5 C

999.7 hpa

82 %

0.0 km/h aus 116

1.6 km/h aus NE

13.4 C

16.6 C

16.5 C

16.6 C

0 W/m

0.00 mm

04:15

16.6 C

999.8 hpa

82 %

1.6 km/h aus 108

6.4 km/h aus NE

13.5 C

16.7 C

16.6 C

16.7 C

0 W/m

0.00 mm

04:20

16.9 C

999.8 hpa

81 %

1.6 km/h aus 108

6.4 km/h aus NE

13.6 C

17.1 C

16.9 C

17.1 C

0 W/m

0.00 mm

04:25

17.1 C

999.8 hpa

80 %

0.0 km/h aus 107

6.4 km/h aus NE

13.6 C

17.3 C

17.1 C

17.3 C

0 W/m

0.00 mm

04:30

17.1 C

1000.0 hpa

79 %

0.0 km/h aus 106

1.6 km/h aus NE

13.4 C

17.2 C

17.1 C

17.2 C

0 W/m

0.00 mm

04:35

17.0 C

1000.0 hpa

80 %

0.0 km/h aus 107

1.6 km/h aus NE

13.5 C

17.2 C

17.0 C

17.2 C

0 W/m

0.00 mm

04:40

16.9 C

1000.0 hpa

80 %

0.0 km/h aus 109

1.6 km/h aus NE

13.5 C

17.1 C

16.9 C

17.1 C

0 W/m

0.00 mm

04:45

16.8 C

1000.1 hpa

81 %

1.6 km/h aus 108

3.2 km/h aus NE

13.5 C

16.9 C

16.8 C

16.9 C

0 W/m

0.00 mm

04:50

16.7 C

1000.1 hpa

81 %

3.2 km/h aus 104

4.8 km/h aus NE

13.4 C

16.8 C

16.7 C

16.8 C

0 W/m

0.00 mm

04:55

16.7 C

1000.1 hpa

81 %

0.0 km/h aus 113

1.6 km/h aus NE

13.4 C

16.8 C

16.7 C

16.8 C

0 W/m

0.00 mm

05:00

16.6 C

1000.1 hpa

82 %

0.0 km/h aus 107

1.6 km/h aus NE

13.5 C

16.7 C

16.6 C

16.7 C

0 W/m

0.00 mm

05:05

16.4 C

1000.1 hpa

83 %

0.0 km/h aus 103

3.2 km/h aus NE

13.5 C

16.6 C

16.4 C

16.6 C

0 W/m

0.00 mm

05:10

16.3 C

1000.1 hpa

84 %

1.6 km/h aus 107

3.2 km/h aus NE

13.6 C

16.4 C

16.3 C

16.4 C

0 W/m

0.00 mm

05:15

16.2 C

1000.1 hpa

84 %

1.6 km/h aus 112

4.8 km/h aus NE

13.5 C

16.3 C

16.2 C

16.3 C

0 W/m

0.00 mm

05:20

16.1 C

1000.1 hpa

85 %

3.2 km/h aus 107

6.4 km/h aus NE

13.5 C

16.2 C

16.1 C

16.2 C

0 W/m

0.00 mm

05:25

16.1 C

1000.1 hpa

85 %

1.6 km/h aus 105

6.4 km/h aus NE

13.5 C

16.2 C

16.1 C

16.2 C

0 W/m

0.00 mm

05:30

16.1 C

1000.3 hpa

84 %

1.6 km/h aus 109

6.4 km/h aus NE

13.4 C

16.2 C

16.1 C

16.2 C

0 W/m

0.00 mm

05:35

16.1 C

1000.3 hpa

84 %

1.6 km/h aus 115

4.8 km/h aus NE

13.4 C

16.2 C

16.1 C

16.2 C

0 W/m

0.00 mm

05:40

16.1 C

1000.3 hpa

83 %

1.6 km/h aus 114

3.2 km/h aus NE

13.2 C

16.1 C

16.1 C

16.1 C

0 W/m

0.00 mm

05:45

16.1 C

1000.5 hpa

83 %

1.6 km/h aus 111

6.4 km/h aus NE

13.2 C

16.1 C

16.1 C

16.1 C

0 W/m

0.00 mm

05:50

16.2 C

1000.5 hpa

82 %

1.6 km/h aus 112

4.8 km/h aus NE

13.1 C

16.3 C

16.2 C

16.3 C

0 W/m

0.00 mm

05:55

16.4 C

1000.5 hpa

81 %

1.6 km/h aus 112

6.4 km/h aus NE

13.1 C

16.4 C

16.4 C

16.4 C

0 W/m

0.00 mm

06:00

16.6 C

1000.6 hpa

81 %

1.6 km/h aus 107

4.8 km/h aus NE

13.3 C

16.7 C

16.6 C

16.7 C

0 W/m

0.00 mm

06:05

16.7 C

1000.6 hpa

80 %

1.6 km/h aus 102

8.0 km/h aus NE

13.3 C

16.8 C

16.7 C

16.8 C

0 W/m

0.00 mm

06:10

16.8 C

1000.6 hpa

80 %

1.6 km/h aus 112

4.8 km/h aus NE

13.4 C

16.9 C

16.8 C

16.9 C

0 W/m

0.00 mm

06:15

16.9 C

1000.6 hpa

79 %

0.0 km/h aus 108

4.8 km/h aus NE

13.3 C

17.1 C

16.9 C

17.1 C

0 W/m

0.00 mm

06:20

17.1 C

1000.6 hpa

79 %

1.6 km/h aus 105

4.8 km/h aus NE

13.4 C

17.2 C

17.1 C

17.2 C

0 W/m

0.00 mm

06:25

17.2 C

1000.6 hpa

79 %

1.6 km/h aus 112

4.8 km/h aus NE

13.5 C

17.3 C

17.2 C

17.3 C

0 W/m

0.00 mm

06:30

17.3 C

1000.9 hpa

79 %

1.6 km/h aus 103

4.8 km/h aus NE

13.6 C

17.4 C

17.3 C

17.4 C

0 W/m

0.00 mm

06:35

17.4 C

1000.9 hpa

78 %

0.0 km/h aus 108

3.2 km/h aus NE

13.5 C

17.5 C

17.4 C

17.5 C

0 W/m

0.00 mm

06:40

17.5 C

1000.9 hpa

78 %

0.0 km/h aus 113

4.8 km/h aus NE

13.6 C

17.6 C

17.5 C

17.6 C

0 W/m

0.00 mm

06:45

17.6 C

1001.1 hpa

78 %

1.6 km/h aus 103

6.4 km/h aus NE

13.7 C

17.7 C

17.6 C

17.7 C

0 W/m

0.00 mm

06:50

17.6 C

1001.1 hpa

78 %

1.6 km/h aus 106

8.0 km/h aus NE

13.7 C

17.7 C

17.6 C

17.7 C

0 W/m

0.00 mm

06:55

17.5 C

1001.1 hpa

78 %

0.0 km/h aus 105

4.8 km/h aus NE

13.6 C

17.6 C

17.5 C

17.6 C

0 W/m

0.00 mm

07:00

17.5 C

1001.2 hpa

79 %

0.0 km/h aus 108

3.2 km/h aus NE

13.8 C

17.7 C

17.5 C

17.7 C

0 W/m

0.00 mm

07:05

17.7 C

1001.2 hpa

78 %

0.0 km/h aus 106

1.6 km/h aus NE

13.8 C

17.8 C

17.7 C

17.8 C

0 W/m

0.00 mm

07:10

17.8 C

1001.2 hpa

77 %

0.0 km/h aus 115

4.8 km/h aus NE

13.7 C

18.0 C

17.8 C

18.0 C

0 W/m

0.00 mm

07:15

17.9 C

1001.3 hpa

77 %

1.6 km/h aus 109

4.8 km/h aus NE

13.9 C

18.1 C

17.9 C

18.1 C

0 W/m

0.00 mm

07:20

18.2 C

1001.3 hpa

77 %

1.6 km/h aus 113

6.4 km/h aus NE

14.1 C

18.4 C

18.2 C

18.4 C

0 W/m

0.00 mm

07:25

18.5 C

1001.3 hpa

75 %

0.0 km/h aus 113

4.8 km/h aus NE

14.0 C

18.7 C

18.5 C

18.7 C

0 W/m

0.00 mm

07:30

18.7 C

1001.5 hpa

75 %

3.2 km/h aus 109

8.0 km/h aus NE

14.1 C

18.9 C

18.7 C

18.9 C

0 W/m

0.00 mm

07:35

18.8 C

1001.5 hpa

75 %

0.0 km/h aus 111

6.4 km/h aus NE

14.3 C

19.1 C

18.8 C

19.1 C

0 W/m

0.00 mm

07:40

18.8 C

1001.5 hpa

75 %

3.2 km/h aus 109

6.4 km/h aus NE

14.3 C

19.1 C

18.8 C

19.1 C

0 W/m

0.00 mm

07:45

19.1 C

1001.7 hpa

75 %

1.6 km/h aus 114

6.4 km/h aus NE

14.6 C

19.4 C

19.1 C

19.4 C

0 W/m

0.00 mm

07:50

19.3 C

1001.7 hpa

75 %

1.6 km/h aus 108

4.8 km/h aus NE

14.7 C

19.6 C

19.3 C

19.6 C

0 W/m

0.00 mm

07:55

19.3 C

1001.7 hpa

74 %

3.2 km/h aus 113

8.0 km/h aus NE

14.6 C

19.7 C

19.3 C

19.7 C

0 W/m

0.00 mm

08:00

19.3 C

1001.8 hpa

73 %

1.6 km/h aus 108

6.4 km/h aus NE

14.3 C

19.6 C

19.3 C

19.6 C

0 W/m

0.00 mm

08:05

19.1 C

1001.8 hpa

74 %

1.6 km/h aus 111

6.4 km/h aus NE

14.4 C

19.4 C

19.1 C

19.4 C

0 W/m

0.00 mm

08:10

18.9 C

1001.8 hpa

74 %

4.8 km/h aus 111

14.5 km/h aus NE

14.2 C

19.1 C

18.9 C

19.1 C

0 W/m

0.00 mm

08:15

18.6 C

1002.0 hpa

75 %

1.6 km/h aus 116

9.7 km/h aus NE

14.0 C

18.8 C

18.6 C

18.8 C

0 W/m

0.00 mm

08:20

18.4 C

1002.0 hpa

76 %

3.2 km/h aus 112

6.4 km/h aus NE

14.1 C

18.6 C

18.4 C

18.6 C

0 W/m

0.00 mm

08:25

18.4 C

1002.0 hpa

76 %

3.2 km/h aus 113

8.0 km/h aus NE

14.1 C

18.6 C

18.4 C

18.6 C

0 W/m

0.00 mm

08:30

18.6 C

1002.2 hpa

76 %

3.2 km/h aus 115

8.0 km/h aus NE

14.2 C

18.8 C

18.6 C

18.8 C

0 W/m

0.00 mm

08:35

18.9 C

1002.2 hpa

76 %

1.6 km/h aus 112

6.4 km/h aus NE

14.6 C

19.2 C

18.9 C

19.2 C

0 W/m

0.00 mm

08:40

19.4 C

1002.2 hpa

75 %

1.6 km/h aus 117

6.4 km/h aus NE

14.9 C

19.8 C

19.4 C

19.8 C

0 W/m

0.00 mm

08:45

19.8 C

1002.4 hpa

73 %

1.6 km/h aus 113

9.7 km/h aus NE

14.8 C

20.2 C

19.8 C

20.2 C

0 W/m

0.00 mm

08:50

20.2 C

1002.4 hpa

72 %

4.8 km/h aus 110

11.3 km/h aus NE

15.0 C

20.6 C

20.2 C

20.6 C

0 W/m

0.00 mm

08:55

20.4 C

1002.4 hpa

71 %

4.8 km/h aus 108

11.3 km/h aus NE

15.0 C

20.7 C

20.4 C

20.7 C

0 W/m

0.00 mm

09:00

20.8 C

1002.6 hpa

71 %

3.2 km/h aus 107

11.3 km/h aus NE

15.3 C

21.0 C

20.8 C

21.0 C

0 W/m

0.00 mm

09:05

21.0 C

1002.6 hpa

71 %

3.2 km/h aus 115

8.0 km/h aus NNE

15.5 C

21.2 C

21.0 C

21.2 C

0 W/m

0.00 mm

09:10

21.2 C

1002.6 hpa

69 %

3.2 km/h aus 116

8.0 km/h aus NNE

15.3 C

21.2 C

21.2 C

21.2 C

0 W/m

0.00 mm

09:15

21.2 C

1002.8 hpa

69 %

1.6 km/h aus 112

6.4 km/h aus NNE

15.3 C

21.3 C

21.2 C

21.3 C

0 W/m

0.00 mm

09:20

21.3 C

1002.8 hpa

69 %

4.8 km/h aus 110

11.3 km/h aus NNE

15.4 C

21.4 C

21.3 C

21.4 C

0 W/m

0.00 mm

09:25

21.6 C

1002.8 hpa

69 %

3.2 km/h aus 116

11.3 km/h aus NE

15.6 C

21.7 C

21.6 C

21.7 C

0 W/m

0.00 mm

09:30

21.7 C

1003.0 hpa

68 %

6.4 km/h aus 112

14.5 km/h aus NNE

15.5 C

21.8 C

21.7 C

21.8 C

0 W/m

0.00 mm

09:35

21.8 C

1003.0 hpa

66 %

6.4 km/h aus 112

14.5 km/h aus NE

15.2 C

21.9 C

21.8 C

21.9 C

0 W/m

0.00 mm

09:40

21.9 C

1003.0 hpa

68 %

6.4 km/h aus 115

14.5 km/h aus NE

15.8 C

22.2 C

21.9 C

22.2 C

0 W/m

0.00 mm

09:45

22.1 C

1003.2 hpa

68 %

6.4 km/h aus 116

11.3 km/h aus E

15.9 C

22.4 C

22.1 C

22.4 C

0 W/m

0.00 mm

09:50

22.3 C

1003.2 hpa

68 %

4.8 km/h aus 113

16.1 km/h aus NE

16.1 C

22.7 C

22.3 C

22.7 C

0 W/m

0.00 mm

09:55

22.3 C

1003.2 hpa

66 %

6.4 km/h aus 113

11.3 km/h aus NE

15.7 C

22.6 C

22.3 C

22.6 C

0 W/m

0.00 mm

10:00

22.5 C

1003.3 hpa

67 %

6.4 km/h aus 114

11.3 km/h aus NNE

16.1 C

22.9 C

22.5 C

22.9 C

0 W/m

0.00 mm

10:05

22.8 C

1003.3 hpa

68 %

4.8 km/h aus 112

16.1 km/h aus NNE

16.6 C

23.4 C

22.8 C

23.4 C

0 W/m

0.00 mm

10:10

22.8 C

1003.3 hpa

65 %

6.4 km/h aus 114

14.5 km/h aus NE

15.9 C

23.2 C

22.8 C

23.2 C

0 W/m

0.00 mm

10:15

23.1 C

1003.3 hpa

65 %

6.4 km/h aus 117

11.3 km/h aus NE

16.1 C

23.6 C

23.1 C

23.6 C

0 W/m

0.00 mm

10:20

23.3 C

1003.3 hpa

66 %

4.8 km/h aus 115

11.3 km/h aus N

16.6 C

23.9 C

23.3 C

23.9 C

0 W/m

0.00 mm

10:25

23.4 C

1003.3 hpa

64 %

4.8 km/h aus 116

9.7 km/h aus NNE

16.2 C

24.0 C

23.4 C

24.0 C

0 W/m

0.00 mm

10:30

23.5 C

1003.3 hpa

63 %

6.4 km/h aus 114

16.1 km/h aus NNE

16.0 C

24.1 C

23.5 C

24.1 C

0 W/m

0.00 mm

10:35

23.4 C

1003.3 hpa

63 %

6.4 km/h aus 116

14.5 km/h aus NE

16.0 C

24.0 C

23.4 C

24.0 C

0 W/m

0.00 mm

10:40

23.6 C

1003.3 hpa

64 %

6.4 km/h aus 116

17.7 km/h aus NE

16.4 C

24.3 C

23.6 C

24.3 C

0 W/m

0.00 mm

10:45

23.7 C

1003.5 hpa

62 %

6.4 km/h aus 115

14.5 km/h aus NE

16.0 C

24.3 C

23.7 C

24.3 C

0 W/m

0.00 mm

10:50

24.0 C

1003.5 hpa

61 %

6.4 km/h aus 114

11.3 km/h aus NE

16.0 C

24.5 C

24.0 C

24.5 C

0 W/m

0.00 mm

10:55

24.1 C

1003.5 hpa

61 %

3.2 km/h aus 116

9.7 km/h aus NE

16.1 C

24.6 C

24.1 C

24.6 C

0 W/m

0.00 mm

11:00

24.2 C

1003.7 hpa

61 %

8.0 km/h aus 114

17.7 km/h aus NE

16.2 C

24.7 C

24.2 C

24.7 C

0 W/m

0.00 mm

11:05

23.7 C

1003.7 hpa

61 %

6.4 km/h aus 115

16.1 km/h aus NE

15.7 C

24.2 C

23.7 C

24.2 C

0 W/m

0.00 mm

11:10

23.3 C

1003.7 hpa

64 %

8.0 km/h aus 115

16.1 km/h aus NNE

16.1 C

23.9 C

23.3 C

23.9 C

0 W/m

0.00 mm

11:15

23.3 C

1003.8 hpa

63 %

8.0 km/h aus 114

16.1 km/h aus NE

15.8 C

23.8 C

23.3 C

23.8 C

0 W/m

0.00 mm

11:20

23.4 C

1003.8 hpa

64 %

9.7 km/h aus 113

19.3 km/h aus NE

16.2 C

24.1 C

23.4 C

24.1 C

0 W/m

0.00 mm

11:25

23.9 C

1003.8 hpa

65 %

8.0 km/h aus 112

17.7 km/h aus NE

17.0 C

24.7 C

23.9 C

24.7 C

0 W/m

0.00 mm

11:30

24.3 C

1003.8 hpa

63 %

8.0 km/h aus 115

16.1 km/h aus NE

16.8 C

24.9 C

24.3 C

24.9 C

0 W/m

0.00 mm

11:35

24.6 C

1003.8 hpa

62 %

6.4 km/h aus 116

16.1 km/h aus NE

16.8 C

25.1 C

24.6 C

25.1 C

0 W/m

0.00 mm

11:40

24.6 C

1003.8 hpa

63 %

6.4 km/h aus 114

19.3 km/h aus NNE

17.1 C

25.2 C

24.6 C

25.2 C

0 W/m

0.00 mm

11:45

24.7 C

1004.0 hpa

62 %

6.4 km/h aus 113

16.1 km/h aus N

16.9 C

25.2 C

24.7 C

25.2 C

0 W/m

0.00 mm

11:50

25.0 C

1004.0 hpa

57 %

6.4 km/h aus 116

16.1 km/h aus NE

15.9 C

25.3 C

25.0 C

25.3 C

0 W/m

0.00 mm

11:55

25.2 C

1004.0 hpa

57 %

4.8 km/h aus 115

14.5 km/h aus E

16.1 C

25.6 C

25.2 C

25.6 C

0 W/m

0.00 mm

12:00

25.3 C

1004.2 hpa

57 %

6.4 km/h aus 111

16.1 km/h aus ENE

16.1 C

25.6 C

25.3 C

25.6 C

0 W/m

0.00 mm

12:05

25.3 C

1004.2 hpa

58 %

4.8 km/h aus 116

14.5 km/h aus NE

16.4 C

25.7 C

25.3 C

25.7 C

0 W/m

0.00 mm

12:10

25.6 C

1004.2 hpa

58 %

3.2 km/h aus 116

9.7 km/h aus E

16.7 C

25.9 C

25.6 C

25.9 C

0 W/m

0.00 mm

12:15

25.6 C

1004.3 hpa

57 %

4.8 km/h aus 114

14.5 km/h aus ENE

16.5 C

26.0 C

25.6 C

26.0 C

0 W/m

0.00 mm

12:20

25.5 C

1004.3 hpa

58 %

6.4 km/h aus 115

16.1 km/h aus N

16.6 C

25.9 C

25.5 C

25.9 C

0 W/m

0.00 mm

12:25

25.3 C

1004.3 hpa

58 %

8.0 km/h aus 118

17.7 km/h aus NNE

16.4 C

25.7 C

25.3 C

25.7 C

0 W/m

0.00 mm

12:30

25.4 C

1004.3 hpa

58 %

4.8 km/h aus 116

9.7 km/h aus NNE

16.6 C

25.8 C

25.4 C

25.8 C

0 W/m

0.00 mm

12:35

25.7 C

1004.3 hpa

60 %

1.6 km/h aus 117

8.0 km/h aus E

17.3 C

26.2 C

25.7 C

26.2 C

0 W/m

0.00 mm

12:40

25.9 C

1004.3 hpa

58 %

4.8 km/h aus 114

24.1 km/h aus NNE

17.0 C

26.4 C

25.9 C

26.4 C

0 W/m

0.00 mm

12:45

25.7 C

1004.4 hpa

56 %

11.3 km/h aus 117

24.1 km/h aus NNE

16.2 C

26.0 C

25.7 C

26.0 C

0 W/m

0.00 mm

12:50

25.3 C

1004.4 hpa

57 %

8.0 km/h aus 117

16.1 km/h aus NE

16.1 C

25.6 C

25.3 C

25.6 C

0 W/m

0.00 mm

12:55

24.9 C

1004.4 hpa

58 %

9.7 km/h aus 113

17.7 km/h aus ENE

16.1 C

25.2 C

24.9 C

25.2 C

0 W/m

0.00 mm

13:00

24.9 C

1004.7 hpa

59 %

8.0 km/h aus 113

19.3 km/h aus NNE

16.3 C

25.3 C

24.9 C

25.3 C

0 W/m

0.00 mm

13:05

25.2 C

1004.7 hpa

60 %

6.4 km/h aus 116

12.9 km/h aus NE

16.9 C

25.6 C

25.2 C

25.6 C

0 W/m

0.00 mm

13:10

25.8 C

1004.7 hpa

61 %

6.4 km/h aus 116

20.9 km/h aus N

17.7 C

26.4 C

25.8 C

26.4 C

0 W/m

0.00 mm

13:15

26.1 C

1004.8 hpa

56 %

12.9 km/h aus 115

20.9 km/h aus NE

16.6 C

26.2 C

25.8 C

26.4 C

0 W/m

0.00 mm

13:20

26.2 C

1004.8 hpa

56 %

8.0 km/h aus 115

16.1 km/h aus NE

16.7 C

26.6 C

26.2 C

26.6 C

0 W/m

0.00 mm

13:25

26.3 C

1004.8 hpa

59 %

6.4 km/h aus 116

19.3 km/h aus NE

17.6 C

26.9 C

26.3 C

26.9 C

0 W/m

0.00 mm

13:30

26.6 C

1004.8 hpa

58 %

8.0 km/h aus 115

20.9 km/h aus NNE

17.6 C

27.1 C

26.6 C

27.1 C

0 W/m

0.00 mm

13:35

26.5 C

1004.8 hpa

56 %

11.3 km/h aus 115

20.9 km/h aus NNE

17.0 C

26.9 C

26.5 C

26.9 C

0 W/m

0.00 mm

13:40

26.8 C

1004.8 hpa

55 %

6.4 km/h aus 115

16.1 km/h aus ENE

17.0 C

27.2 C

26.8 C

27.2 C

0 W/m

0.00 mm

13:45

26.8 C

1004.8 hpa

54 %

11.3 km/h aus 116

24.1 km/h aus NNE

16.7 C

27.2 C

26.8 C

27.2 C

0 W/m

0.00 mm

13:50

26.8 C

1004.8 hpa

55 %

12.9 km/h aus 117

24.1 km/h aus NE

17.0 C

26.9 C

26.6 C

27.2 C

0 W/m

0.00 mm

13:55

26.9 C

1004.8 hpa

53 %

12.9 km/h aus 117

22.5 km/h aus NNE

16.5 C

26.9 C

26.7 C

27.2 C

0 W/m

0.00 mm

14:00

27.2 C

1004.9 hpa

55 %

9.7 km/h aus 117

19.3 km/h aus NNE

17.3 C

27.7 C

27.2 C

27.7 C

0 W/m

0.00 mm

14:05

27.3 C

1004.9 hpa

53 %

9.7 km/h aus 116

25.7 km/h aus NE

16.9 C

27.7 C

27.3 C

27.7 C

0 W/m

0.00 mm

14:10

27.2 C

1004.9 hpa

53 %

16.1 km/h aus 116

32.2 km/h aus NNE

16.8 C

26.7 C

26.3 C

27.5 C

0 W/m

0.00 mm

14:15

26.9 C

1004.9 hpa

53 %

14.5 km/h aus 113

29.0 km/h aus NE

16.6 C

26.7 C

26.4 C

27.2 C

0 W/m

0.00 mm

14:20

27.2 C

1004.9 hpa

52 %

9.7 km/h aus 115

22.5 km/h aus NE

16.5 C

27.5 C

27.2 C

27.5 C

0 W/m

0.00 mm

14:25

27.4 C

1004.9 hpa

53 %

9.7 km/h aus 118

19.3 km/h aus N

17.0 C

27.9 C

27.4 C

27.9 C

0 W/m

0.00 mm

14:30

27.7 C

1005.2 hpa

54 %

9.7 km/h aus 116

19.3 km/h aus ENE

17.5 C

28.3 C

27.7 C

28.3 C

0 W/m

0.00 mm

14:35

27.6 C

1005.2 hpa

52 %

12.9 km/h aus 116

22.5 km/h aus NNE

16.8 C

27.8 C

27.4 C

27.9 C

0 W/m

0.00 mm

14:40

27.6 C

1005.2 hpa

50 %

12.9 km/h aus 117

27.4 km/h aus NE

16.2 C

27.6 C

27.4 C

27.8 C

0 W/m

0.00 mm

14:45

27.7 C

1005.2 hpa

51 %

14.5 km/h aus 116

22.5 km/h aus NE

16.6 C

27.6 C

27.2 C

28.1 C

0 W/m

0.00 mm

14:50

27.7 C

1005.2 hpa

50 %

12.9 km/h aus 114

22.5 km/h aus NNE

16.4 C

27.9 C

27.6 C

28.1 C

0 W/m

0.00 mm

14:55

27.6 C

1005.2 hpa

53 %

14.5 km/h aus 115

30.6 km/h aus NE

17.1 C

27.6 C

27.1 C

28.1 C

0 W/m

0.00 mm

15:00

27.5 C

1005.2 hpa

51 %

12.9 km/h aus 115

25.7 km/h aus NE

16.5 C

27.6 C

27.3 C

27.8 C

0 W/m

0.00 mm

15:05

27.5 C

1005.2 hpa

51 %

14.5 km/h aus 117

27.4 km/h aus NE

16.5 C

27.3 C

27.0 C

27.8 C

0 W/m

0.00 mm

15:10

27.7 C

1005.2 hpa

51 %

8.0 km/h aus 117

20.9 km/h aus NE

16.6 C

28.1 C

27.7 C

28.1 C

0 W/m

0.00 mm

15:15

27.9 C

1005.3 hpa

49 %

14.5 km/h aus 116

29.0 km/h aus NNE

16.2 C

27.8 C

27.4 C

28.3 C

0 W/m

0.00 mm

15:20

27.8 C

1005.3 hpa

51 %

12.9 km/h aus 116

24.1 km/h aus NE

16.8 C

28.1 C

27.7 C

28.3 C

0 W/m

0.00 mm

15:25

28.1 C

1005.3 hpa

50 %

11.3 km/h aus 115

22.5 km/h aus NE

16.7 C

28.6 C

28.1 C

28.6 C

0 W/m

0.00 mm

15:30

28.0 C

1005.4 hpa

51 %

11.3 km/h aus 117

27.4 km/h aus NNE

16.9 C

28.6 C

28.0 C

28.6 C

0 W/m

0.00 mm

15:35

28.0 C

1005.4 hpa

49 %

11.3 km/h aus 115

20.9 km/h aus NE

16.3 C

28.4 C

28.0 C

28.4 C

0 W/m

0.00 mm

15:40

27.9 C

1005.4 hpa

49 %

12.9 km/h aus 116

27.4 km/h aus NNE

16.2 C

28.1 C

27.8 C

28.3 C

0 W/m

0.00 mm

15:45

28.2 C

1005.6 hpa

49 %

11.3 km/h aus 114

20.9 km/h aus NNE

16.4 C

28.7 C

28.2 C

28.7 C

0 W/m

0.00 mm

15:50

28.2 C

1005.6 hpa

49 %

8.0 km/h aus 115

20.9 km/h aus NE

16.4 C

28.7 C

28.2 C

28.7 C

0 W/m

0.00 mm

15:55

28.2 C

1005.6 hpa

48 %

9.7 km/h aus 116

19.3 km/h aus NE

16.1 C

28.6 C

28.2 C

28.6 C

0 W/m

0.00 mm

16:00

28.1 C

1005.6 hpa

50 %

8.0 km/h aus 114

17.7 km/h aus NE

16.7 C

28.7 C

28.1 C

28.7 C

0 W/m

0.00 mm

16:05

28.3 C

1005.6 hpa

51 %

9.7 km/h aus 115

24.1 km/h aus NNE

17.2 C

29.0 C

28.3 C

29.0 C

0 W/m

0.00 mm

16:10

28.3 C

1005.6 hpa

48 %

11.3 km/h aus 115

24.1 km/h aus NE

16.3 C

28.8 C

28.3 C

28.8 C

0 W/m

0.00 mm

16:15

28.4 C

1005.8 hpa

49 %

11.3 km/h aus 116

24.1 km/h aus N

16.7 C

29.1 C

28.4 C

29.1 C

0 W/m

0.00 mm

16:20

28.5 C

1005.8 hpa

48 %

11.3 km/h aus 116

24.1 km/h aus ENE

16.4 C

29.1 C

28.5 C

29.1 C

0 W/m

0.00 mm

16:25

28.2 C

1005.8 hpa

47 %

16.1 km/h aus 115

29.0 km/h aus NE

15.8 C

27.9 C

27.6 C

28.6 C

0 W/m

0.00 mm

16:30

27.9 C

1005.9 hpa

49 %

12.9 km/h aus 117

24.1 km/h aus NE

16.2 C

28.1 C

27.7 C

28.2 C

0 W/m

0.00 mm

16:35

28.0 C

1005.9 hpa

49 %

8.0 km/h aus 116

16.1 km/h aus NE

16.3 C

28.4 C

28.0 C

28.4 C

0 W/m

0.00 mm

16:40

27.8 C

1005.9 hpa

49 %

12.9 km/h aus 114

20.9 km/h aus NE

16.1 C

27.9 C

27.7 C

28.1 C

0 W/m

0.00 mm

16:45

27.6 C

1006.1 hpa

50 %

9.7 km/h aus 113

22.5 km/h aus NE

16.2 C

27.8 C

27.6 C

27.8 C

0 W/m

0.00 mm

16:50

27.4 C

1006.1 hpa

51 %

3.2 km/h aus 114

8.0 km/h aus NE

16.4 C

27.7 C

27.4 C

27.7 C

0 W/m

0.00 mm

16:55

27.4 C

1006.1 hpa

53 %

3.2 km/h aus 114

8.0 km/h aus NE

17.0 C

27.9 C

27.4 C

27.9 C

0 W/m

0.00 mm

17:00

27.8 C

1006.2 hpa

50 %

1.6 km/h aus 115

4.8 km/h aus NE

16.5 C

28.2 C

27.8 C

28.2 C

0 W/m

0.00 mm

17:05

28.3 C

1006.2 hpa

51 %

3.2 km/h aus 116

8.0 km/h aus NE

17.2 C

29.0 C

28.3 C

29.0 C

0 W/m

0.00 mm

17:10

28.2 C

1006.2 hpa

52 %

3.2 km/h aus 117

8.0 km/h aus ESE

17.4 C

29.0 C

28.2 C

29.0 C

0 W/m

0.00 mm

17:15

28.3 C

1006.3 hpa

53 %

0.0 km/h aus 116

4.8 km/h aus ESE

17.8 C

29.2 C

28.3 C

29.2 C

0 W/m

0.00 mm

17:20

28.4 C

1006.3 hpa

48 %

1.6 km/h aus 116

4.8 km/h aus ESE

16.4 C

29.0 C

28.4 C

29.0 C

0 W/m

0.00 mm

17:25

28.6 C

1006.3 hpa

48 %

4.8 km/h aus 115

17.7 km/h aus ENE

16.5 C

29.2 C

28.6 C

29.2 C

0 W/m

0.00 mm

17:30

28.6 C

1006.3 hpa

51 %

4.8 km/h aus 117

11.3 km/h aus S

17.5 C

29.6 C

28.6 C

29.6 C

0 W/m

0.00 mm

17:35

28.5 C

1006.3 hpa

47 %

6.4 km/h aus 115

16.1 km/h aus ESE

16.1 C

29.1 C

28.5 C

29.1 C

0 W/m

0.00 mm

17:40

28.7 C

1006.3 hpa

50 %

4.8 km/h aus 116

14.5 km/h aus NNE

17.3 C

29.6 C

28.7 C

29.6 C

0 W/m

0.00 mm

17:45

28.8 C

1006.4 hpa

47 %

6.4 km/h aus 115

16.1 km/h aus NE

16.3 C

29.5 C

28.8 C

29.5 C

0 W/m

0.00 mm

17:50

28.9 C

1006.4 hpa

48 %

6.4 km/h aus 116

16.1 km/h aus NE

16.8 C

29.7 C

28.9 C

29.7 C

0 W/m

0.00 mm

17:55

28.8 C

1006.4 hpa

44 %

9.7 km/h aus 114

19.3 km/h aus NNE

15.3 C

29.2 C

28.8 C

29.2 C

0 W/m

0.00 mm

18:00

28.7 C

1006.4 hpa

47 %

6.4 km/h aus 117

16.1 km/h aus NE

16.2 C

29.3 C

28.7 C

29.3 C

0 W/m

0.00 mm

18:05

28.8 C

1006.4 hpa

47 %

3.2 km/h aus 116

8.0 km/h aus NE

16.3 C

29.5 C

28.8 C

29.5 C

0 W/m

0.00 mm

18:10

28.7 C

1006.4 hpa

46 %

6.4 km/h aus 116

16.1 km/h aus ENE

16.0 C

29.3 C

28.7 C

29.3 C

0 W/m

0.00 mm

18:15

28.8 C

1006.5 hpa

47 %

4.8 km/h aus 117

9.7 km/h aus ENE

16.3 C

29.5 C

28.8 C

29.5 C

0 W/m

0.00 mm

18:20

28.6 C

1006.5 hpa

48 %

4.8 km/h aus 115

9.7 km/h aus NE

16.5 C

29.3 C

28.6 C

29.3 C

0 W/m

0.00 mm

18:25

28.6 C

1006.5 hpa

47 %

3.2 km/h aus 117

11.3 km/h aus ENE

16.2 C

29.2 C

28.6 C

29.2 C

0 W/m

0.00 mm

18:30

28.7 C

1006.6 hpa

48 %

1.6 km/h aus 116

8.0 km/h aus ENE

16.6 C

29.4 C

28.7 C

29.4 C

0 W/m

0.00 mm

18:35

28.5 C

1006.6 hpa

49 %

4.8 km/h aus 117

9.7 km/h aus NE

16.7 C

29.2 C

28.5 C

29.2 C

0 W/m

0.00 mm

18:40

28.5 C

1006.6 hpa

48 %

4.8 km/h aus 116

11.3 km/h aus NE

16.4 C

29.1 C

28.5 C

29.1 C

0 W/m

0.00 mm

18:45

28.3 C

1006.7 hpa

47 %

1.6 km/h aus 116

9.7 km/h aus NE

15.9 C

28.8 C

28.3 C

28.8 C

0 W/m

0.00 mm

18:50

28.3 C

1006.7 hpa

47 %

4.8 km/h aus 117

14.5 km/h aus NE

15.9 C

28.8 C

28.3 C

28.8 C

0 W/m

0.00 mm

18:55

28.3 C

1006.7 hpa

48 %

1.6 km/h aus 117

4.8 km/h aus NE

16.2 C

28.8 C

28.3 C

28.8 C

0 W/m

0.00 mm

19:00

28.1 C

1006.9 hpa

47 %

3.2 km/h aus 116

8.0 km/h aus NE

15.7 C

28.4 C

28.1 C

28.4 C

0 W/m

0.00 mm

19:05

28.0 C

1006.9 hpa

47 %

3.2 km/h aus 116

8.0 km/h aus NE

15.6 C

28.2 C

28.0 C

28.2 C

0 W/m

0.00 mm

19:10

27.9 C

1006.9 hpa

48 %

3.2 km/h aus 115

6.4 km/h aus NE

15.9 C

28.1 C

27.9 C

28.1 C

0 W/m

0.00 mm

19:15

27.8 C

1007.0 hpa

47 %

4.8 km/h aus 115

11.3 km/h aus NE

15.4 C

27.9 C

27.8 C

27.9 C

0 W/m

0.00 mm

19:20

27.7 C

1007.0 hpa

48 %

1.6 km/h aus 114

6.4 km/h aus NNE

15.7 C

27.9 C

27.7 C

27.9 C

0 W/m

0.00 mm

19:25

27.6 C

1007.0 hpa

49 %

0.0 km/h aus 110

3.2 km/h aus NE

15.9 C

27.7 C

27.6 C

27.7 C

0 W/m

0.00 mm

19:30

27.5 C

1007.3 hpa

48 %

0.0 km/h aus 111

3.2 km/h aus NE

15.5 C

27.6 C

27.5 C

27.6 C

0 W/m

0.00 mm

19:35

27.4 C

1007.3 hpa

48 %

0.0 km/h aus 113

1.6 km/h aus NNE

15.5 C

27.5 C

27.4 C

27.5 C

0 W/m

0.00 mm

19:40

27.3 C

1007.3 hpa

50 %

0.0 km/h aus 110

3.2 km/h aus NE

16.0 C

27.5 C

27.3 C

27.5 C

0 W/m

0.00 mm

19:45

27.2 C

1007.4 hpa

51 %

0.0 km/h aus 108

4.8 km/h aus NNE

16.2 C

27.3 C

27.2 C

27.3 C

0 W/m

0.00 mm

19:50

27.0 C

1007.4 hpa

52 %

1.6 km/h aus 112

4.8 km/h aus NE

16.3 C

27.2 C

27.0 C

27.2 C

0 W/m

0.00 mm

19:55

26.8 C

1007.4 hpa

52 %

0.0 km/h aus 111

4.8 km/h aus NNE

16.1 C

27.0 C

26.8 C

27.0 C

0 W/m

0.00 mm

20:00

26.6 C

1007.6 hpa

54 %

0.0 km/h aus 115

3.2 km/h aus NNE

16.5 C

26.9 C

26.6 C

26.9 C

0 W/m

0.00 mm

20:05

26.4 C

1007.6 hpa

56 %

0.0 km/h aus 111

3.2 km/h aus NE

17.0 C

26.9 C

26.4 C

26.9 C

0 W/m

0.00 mm

20:10

26.2 C

1007.6 hpa

59 %

0.0 km/h aus 111

1.6 km/h aus NE

17.5 C

26.7 C

26.2 C

26.7 C

0 W/m

0.00 mm

20:15

26.0 C

1007.9 hpa

59 %

0.0 km/h aus 113

3.2 km/h aus NE

17.4 C

26.6 C

26.0 C

26.6 C

0 W/m

0.00 mm

20:20

25.9 C

1007.9 hpa

61 %

0.0 km/h aus 109

1.6 km/h aus NE

17.8 C

26.5 C

25.9 C

26.5 C

0 W/m

0.00 mm

20:25

25.6 C

1007.9 hpa

62 %

0.0 km/h aus 109

3.2 km/h aus NNE

17.8 C

26.2 C

25.6 C

26.2 C

0 W/m

0.00 mm

20:30

25.3 C

1008.0 hpa

61 %

3.2 km/h aus 105

4.8 km/h aus NE

17.2 C

25.8 C

25.3 C

25.8 C

0 W/m

0.00 mm

20:35

25.1 C

1008.0 hpa

62 %

1.6 km/h aus 109

4.8 km/h aus NE

17.3 C

25.7 C

25.1 C

25.7 C

0 W/m

0.00 mm

20:40

24.8 C

1008.0 hpa

66 %

0.0 km/h aus 109

1.6 km/h aus NE

18.0 C

25.6 C

24.8 C

25.6 C

0 W/m

0.00 mm

20:45

24.3 C

1008.1 hpa

68 %

0.0 km/h aus 106

1.6 km/h aus NE

18.0 C

25.2 C

24.3 C

25.2 C

0 W/m

0.00 mm

20:50

23.8 C

1008.1 hpa

68 %

1.6 km/h aus 110

3.2 km/h aus NE

17.5 C

24.6 C

23.8 C

24.6 C

0 W/m

0.00 mm

20:55

23.8 C

1008.1 hpa

67 %

0.0 km/h aus 106

1.6 km/h aus NE

17.3 C

24.6 C

23.8 C

24.6 C

0 W/m

0.00 mm

21:00

23.7 C

1008.4 hpa

67 %

1.6 km/h aus 103

4.8 km/h aus NE

17.2 C

24.4 C

23.7 C

24.4 C

0 W/m

0.00 mm

21:05

23.3 C

1008.4 hpa

69 %

0.0 km/h aus 105

4.8 km/h aus NE

17.3 C

24.2 C

23.3 C

24.2 C

0 W/m

0.00 mm

21:10

22.9 C

1008.4 hpa

72 %

0.0 km/h aus 110

1.6 km/h aus NE

17.6 C

23.7 C

22.9 C

23.7 C

0 W/m

0.00 mm

21:15

22.5 C

1008.6 hpa

74 %

0.0 km/h aus 111

3.2 km/h aus NE

17.6 C

23.2 C

22.5 C

23.2 C

0 W/m

0.00 mm

21:20

22.4 C

1008.6 hpa

74 %

0.0 km/h aus 104

1.6 km/h aus NE

17.5 C

23.0 C

22.4 C

23.0 C

0 W/m

0.00 mm

21:25

22.2 C

1008.6 hpa

74 %

0.0 km/h aus 107

3.2 km/h aus NE

17.4 C

22.7 C

22.2 C

22.7 C

0 W/m

0.00 mm

21:30

22.2 C

1009.0 hpa

74 %

0.0 km/h aus 109

4.8 km/h aus NE

17.3 C

22.7 C

22.2 C

22.7 C

0 W/m

0.00 mm

21:35

22.2 C

1009.0 hpa

72 %

4.8 km/h aus 108

9.7 km/h aus NNW

16.9 C

22.6 C

22.2 C

22.6 C

0 W/m

0.00 mm

21:40

22.4 C

1009.0 hpa

71 %

4.8 km/h aus 115

9.7 km/h aus NNW

16.9 C

22.9 C

22.4 C

22.9 C

0 W/m

0.00 mm

21:45

22.6 C

1009.5 hpa

70 %

3.2 km/h aus 108

8.0 km/h aus NNW

16.8 C

23.1 C

22.6 C

23.1 C

0 W/m

0.00 mm

21:50

22.6 C

1009.5 hpa

69 %

1.6 km/h aus 111

6.4 km/h aus NNW

16.6 C

23.1 C

22.6 C

23.1 C

0 W/m

0.00 mm

21:55

22.3 C

1009.5 hpa

70 %

1.6 km/h aus 111

8.0 km/h aus NNW

16.6 C

22.8 C

22.3 C

22.8 C

0 W/m

0.00 mm

22:00

22.3 C

1009.6 hpa

69 %

3.2 km/h aus 116

8.0 km/h aus NNW

16.3 C

22.7 C

22.3 C

22.7 C

0 W/m

0.00 mm

22:05

22.1 C

1009.6 hpa

69 %

1.6 km/h aus 110

4.8 km/h aus NNW

16.2 C

22.4 C

22.1 C

22.4 C

0 W/m

0.00 mm

22:10

21.8 C

1009.6 hpa

70 %

0.0 km/h aus 114

3.2 km/h aus NNW

16.1 C

22.1 C

21.8 C

22.1 C

0 W/m

0.00 mm

22:15

21.7 C

1010.0 hpa

71 %

0.0 km/h aus 116

1.6 km/h aus NNW

16.2 C

21.9 C

21.7 C

21.9 C

0 W/m

0.00 mm

22:20

21.4 C

1010.0 hpa

72 %

1.6 km/h aus 113

3.2 km/h aus NNW

16.2 C

21.7 C

21.4 C

21.7 C

0 W/m

0.00 mm

22:25

21.2 C

1010.0 hpa

73 %

0.0 km/h aus 111

3.2 km/h aus NNW

16.1 C

21.4 C

21.2 C

21.4 C

0 W/m

0.00 mm

22:30

20.8 C

1010.0 hpa

75 %

0.0 km/h aus 108

1.6 km/h aus NNW

16.2 C

21.2 C

20.8 C

21.2 C

0 W/m

0.00 mm

22:35

20.3 C

1010.0 hpa

76 %

0.0 km/h aus 114

0.0 km/h aus ---

16.0 C

20.9 C

20.3 C

20.9 C

0 W/m

0.00 mm

22:40

20.2 C

1010.0 hpa

77 %

0.0 km/h aus 111

0.0 km/h aus ---

16.1 C

20.8 C

20.2 C

20.8 C

0 W/m

0.00 mm

22:45

20.1 C

1010.3 hpa

78 %

0.0 km/h aus 112

0.0 km/h aus ---

16.1 C

20.7 C

20.1 C

20.7 C

0 W/m

0.00 mm

22:50

19.8 C

1010.3 hpa

79 %

0.0 km/h aus 111

0.0 km/h aus ---

16.0 C

20.4 C

19.8 C

20.4 C

0 W/m

0.00 mm

22:55

19.6 C

1010.3 hpa

80 %

0.0 km/h aus 114

0.0 km/h aus ---

16.1 C

20.3 C

19.6 C

20.3 C

0 W/m

0.00 mm

23:00

19.4 C

1010.5 hpa

80 %

0.0 km/h aus 115

0.0 km/h aus ---

15.9 C

20.1 C

19.4 C

20.1 C

0 W/m

0.00 mm

23:05

19.3 C

1010.5 hpa

82 %

0.0 km/h aus 113

0.0 km/h aus ---

16.1 C

19.9 C

19.3 C

19.9 C

0 W/m

0.00 mm

23:10

19.1 C

1010.5 hpa

83 %

0.0 km/h aus 105

0.0 km/h aus ---

16.2 C

19.7 C

19.1 C

19.7 C

0 W/m

0.00 mm

23:15

18.9 C

1010.6 hpa

84 %

0.0 km/h aus 108

0.0 km/h aus ---

16.2 C

19.5 C

18.9 C

19.5 C

0 W/m

0.00 mm

23:20

18.8 C

1010.6 hpa

85 %

0.0 km/h aus 108

0.0 km/h aus ---

16.3 C

19.4 C

18.8 C

19.4 C

0 W/m

0.00 mm

23:25

18.7 C

1010.6 hpa

85 %

0.0 km/h aus 111

0.0 km/h aus ---

16.1 C

19.2 C

18.7 C

19.2 C

0 W/m

0.00 mm

23:30

18.6 C

1010.8 hpa

85 %

0.0 km/h aus 110

0.0 km/h aus ---

16.0 C

19.1 C

18.6 C

19.1 C

0 W/m

0.00 mm

23:35

18.6 C

1010.8 hpa

85 %

0.0 km/h aus 114

0.0 km/h aus ---

16.0 C

19.1 C

18.6 C

19.1 C

0 W/m

0.00 mm

23:40

18.4 C

1010.8 hpa

85 %

0.0 km/h aus 115

0.0 km/h aus ---

15.9 C

18.9 C

18.4 C

18.9 C

0 W/m

0.00 mm

23:45

18.3 C

1010.9 hpa

85 %

0.0 km/h aus 111

0.0 km/h aus ---

15.8 C

18.8 C

18.3 C

18.8 C

0 W/m

0.00 mm

23:50

18.3 C

1010.9 hpa

86 %

0.0 km/h aus 110

0.0 km/h aus ---

15.9 C

18.7 C

18.3 C

18.7 C

0 W/m

0.00 mm

23:55

18.2 C

1010.9 hpa

86 %

0.0 km/h aus 116

0.0 km/h aus ---

15.8 C

18.7 C

18.2 C

18.7 C

0 W/m

0.00 mm